GFSMW_925_spd_054.txt.gz
Wind_Speed
22 27 31 34 35 34 39 37 35 31 28 26 23 18 16 16 15 15 17 17 14 12 12 12 12 8 4 3 3 4 5 7 13 6 17 2 5 12 10 27 16 14 10
12 22 29 30 32 37 39 38 36 32 30 30 25 15 14 15 16 18 18 17 15 15 13 11 10 8 5 3 2 5 5 7 9 8 6 3 8 4 25 2 18 11 14
17 16 24 28 27 30 37 40 40 36 30 26 18 11 16 17 20 21 20 20 16 13 11 10 9 5 1 1 2 3 4 4 8 9 4 3 2 8 1 19 3 13 12
15 17 25 25 32 37 38 38 37 32 28 25 22 21 27 23 25 26 24 21 14 12 10 9 8 5 4 3 1 3 6 9 10 12 9 10 12 2 4 1 15 8 16
19 18 25 34 33 36 40 38 34 32 29 28 24 25 26 28 26 26 24 20 17 14 13 11 8 8 6 2 1 6 9 9 10 12 14 12 11 9 5 4 2 15 15
13 11 22 27 30 36 38 34 35 34 30 29 25 30 29 29 24 26 26 22 20 17 12 9 10 5 1 3 7 10 12 13 15 16 15 14 7 6 7 4 12 14 18
9 11 14 21 23 27 29 36 35 29 26 30 27 31 30 29 27 29 27 22 17 16 15 10 4 2 4 6 6 8 12 13 15 16 14 8 10 12 13 13 10 7 6
13 13 16 21 23 28 32 31 30 26 22 25 30 30 23 23 21 21 20 15 15 12 8 6 2 3 3 7 9 11 11 14 14 7 7 9 11 12 13 10 6 3 4
10 12 14 20 24 28 31 33 29 25 24 26 26 22 21 22 20 16 16 21 12 11 4 4 7 6 7 11 12 13 14 12 8 11 12 12 12 11 11 9 9 4 2
8 8 13 20 26 30 29 27 27 29 30 26 25 24 24 22 20 19 15 6 8 1 9 7 4 9 14 14 15 14 11 11 14 16 14 12 9 5 4 5 7 7 7
11 11 13 23 31 31 31 29 30 33 30 28 27 26 24 26 19 11 3 6 2 6 4 8 8 10 11 15 15 14 13 14 16 13 10 9 5 8 8 6 3 4 5
14 14 19 25 27 33 35 33 36 38 37 33 31 27 21 11 9 10 8 3 5 6 5 5 7 11 14 13 13 14 13 14 13 10 7 7 7 8 7 6 7 8 8
10 10 12 20 27 29 28 18 21 21 28 34 28 24 20 14 8 9 7 5 10 3 5 8 11 12 11 13 12 12 14 9 8 7 7 10 11 10 8 8 10 8 9
12 11 10 15 21 19 22 26 26 31 31 26 21 18 16 10 11 10 12 8 5 5 8 12 11 12 12 10 11 12 12 9 8 9 10 8 6 7 8 10 8 8 9
6 6 6 7 18 19 22 26 30 33 30 27 25 21 18 20 19 12 3 7 7 7 17 14 11 12 12 12 12 13 13 14 14 12 12 8 8 10 9 8 8 7 10
3 7 8 13 18 22 23 25 28 28 28 28 26 25 21 18 9 2 2 3 7 19 13 10 14 15 12 12 14 13 15 14 13 12 11 10 10 12 11 10 8 9 11
6 7 8 12 17 19 24 24 26 26 27 26 23 18 14 13 10 6 4 13 18 10 12 16 15 14 14 15 14 15 16 15 14 13 11 11 10 11 12 10 10 11 14
7 8 12 20 22 25 27 30 30 29 24 23 22 20 16 11 1 13 13 10 10 16 17 15 15 16 17 14 14 16 16 16 17 15 12 12 13 15 12 11 12 15 18
12 17 20 25 28 28 28 30 27 25 25 22 17 12 11 9 8 10 13 14 16 17 16 16 16 17 17 15 18 17 18 18 19 18 13 16 17 13 12 11 13 17 20
19 23 25 30 33 28 33 33 27 24 20 12 7 12 9 5 8 11 14 14 15 15 15 17 19 18 18 17 19 17 18 19 20 17 17 16 16 13 12 12 14 18 16
22 25 28 28 28 28 28 26 20 16 7 4 4 2 4 7 8 11 14 14 17 18 19 21 20 19 18 18 16 17 20 21 21 22 21 18 17 17 14 12 15 15 12
22 24 26 24 23 19 18 14 11 4 4 3 3 6 9 11 12 14 17 18 18 19 20 21 22 23 21 18 19 19 21 23 23 25 25 20 17 16 16 14 16 13 13
19 20 20 20 16 15 12 9 8 5 6 8 10 11 13 15 14 16 19 20 21 24 25 25 27 27 24 22 21 20 22 23 28 28 28 22 18 16 17 17 16 15 16
14 16 18 15 12 9 9 8 7 8 9 11 13 15 16 18 18 20 22 24 25 26 26 28 26 24 25 27 24 24 23 24 26 27 26 24 22 20 19 18 18 16 15
16 17 15 12 10 9 9 10 11 11 12 14 16 19 21 23 25 27 27 27 29 28 29 27 24 23 26 30 26 24 25 26 27 25 26 23 23 23 22 20 20 17 16
14 15 14 14 14 14 14 15 16 15 16 17 20 22 24 25 27 31 36 34 34 35 32 32 33 34 30 29 28 26 25 26 25 23 20 20 24 24 23 24 22 18 18

GFSMW_925_spd_057.txt.gz
Wind_Speed
20 21 23 22 23 26 30 30 32 31 31 29 26 22 20 17 17 18 21 19 19 17 14 13 11 8 4 4 3 2 4 3 7 4 10 3 8 6 4 21 9 16 7
11 18 23 26 29 33 34 31 33 35 33 31 28 24 22 19 20 22 20 18 17 16 13 10 9 8 5 5 5 4 2 3 7 5 3 2 5 4 18 4 11 0 7
17 16 22 29 33 37 39 38 38 38 36 32 27 19 21 16 19 21 20 19 16 15 13 10 9 9 7 8 5 3 3 3 3 4 2 2 3 5 2 8 2 10 14
16 16 22 27 36 43 41 41 40 40 38 33 29 25 24 18 21 24 23 21 18 15 13 11 10 9 9 8 6 4 3 4 3 4 2 6 10 3 3 4 9 9 11
19 20 25 34 30 29 35 36 36 37 37 32 29 24 19 19 19 24 23 21 18 16 15 13 13 10 8 6 3 2 3 3 3 4 5 7 8 10 9 4 6 9 15
14 16 23 22 24 28 30 35 40 41 36 33 28 24 21 22 21 23 22 21 18 14 13 12 11 7 4 2 3 4 6 6 8 9 10 10 6 5 8 5 8 10 12
11 12 13 21 23 28 34 31 33 32 36 33 29 26 24 24 26 25 26 26 20 15 15 16 9 2 2 6 13 8 8 9 10 11 11 9 9 10 14 16 11 7 8
12 13 16 22 23 27 29 28 30 32 36 30 27 29 26 28 27 24 26 25 20 21 16 6 4 3 12 17 8 7 9 11 10 5 6 9 11 14 17 18 7 3 5
13 15 17 22 22 24 29 31 32 32 30 31 30 32 27 29 26 21 21 21 24 18 8 3 5 13 8 8 7 9 8 5 5 8 12 14 14 14 15 13 9 4 3
7 9 13 19 23 29 32 32 33 32 30 28 29 29 30 27 24 26 32 28 16 7 6 1 8 11 10 8 10 8 5 6 9 12 15 13 12 8 7 8 8 12 8
9 10 12 20 26 27 31 30 30 30 31 28 30 30 30 31 31 27 23 17 13 13 10 7 12 17 9 8 8 8 9 10 12 15 14 12 9 10 9 10 9 8 7
11 11 15 19 24 29 31 33 33 32 30 31 31 29 29 29 27 22 18 20 18 15 11 12 15 10 10 8 9 12 11 11 14 14 11 11 10 10 11 11 10 9 9
6 5 6 14 21 25 23 26 27 29 33 32 31 34 31 24 19 20 20 16 10 11 12 13 10 11 9 7 12 12 11 13 15 12 11 11 13 15 14 12 11 12 10
10 7 5 6 12 16 19 20 23 29 32 34 35 32 28 22 21 18 13 11 9 10 12 8 12 10 8 11 10 10 11 14 12 12 13 13 14 13 11 12 13 12 12
8 8 7 6 11 18 20 21 23 26 29 27 28 25 21 17 17 14 13 5 7 9 7 13 10 9 12 12 10 11 12 13 14 16 16 15 13 13 13 13 12 12 12
3 7 7 8 13 17 20 21 23 23 25 22 21 19 17 20 20 9 4 6 3 13 15 11 11 14 14 13 12 14 13 13 16 17 15 15 14 14 14 13 12 12 12
7 6 6 8 14 19 24 24 25 25 24 25 25 25 20 13 12 9 4 7 10 14 12 14 15 16 15 14 15 15 14 16 17 17 17 16 14 14 13 14 14 13 13
7 8 10 16 19 22 23 26 27 27 27 25 23 21 16 11 2 7 10 10 13 13 15 17 16 16 17 17 17 16 17 20 20 19 19 17 15 14 16 17 17 16 15
9 13 18 21 23 25 27 30 28 27 28 26 18 10 7 9 9 7 10 12 13 14 15 16 16 17 19 20 19 17 20 22 22 21 20 20 20 16 17 17 17 16 16
15 17 22 25 28 25 30 32 27 27 22 13 6 7 13 11 6 8 10 12 13 16 16 17 19 21 23 21 20 19 20 22 24 23 23 20 19 17 16 18 17 16 16
18 23 25 26 27 29 30 28 22 16 7 6 9 6 2 4 7 10 12 14 16 19 20 21 22 23 24 25 24 22 22 23 23 24 24 21 20 20 18 18 19 18 14
19 21 23 23 21 21 21 17 12 5 3 3 1 3 6 7 9 13 14 15 18 21 23 25 28 28 26 26 28 26 24 24 23 24 25 23 21 21 20 19 20 17 16
17 19 21 22 19 16 13 13 8 4 3 4 6 8 10 12 14 16 19 20 22 24 28 30 30 34 34 30 28 25 25 26 27 27 28 25 24 23 20 21 19 17 18
15 17 18 17 16 12 13 12 8 5 5 8 11 13 16 19 20 22 24 27 30 31 31 27 26 30 34 35 27 28 25 25 29 29 28 29 27 25 25 22 22 21 20
16 17 17 16 17 16 16 15 13 11 12 13 16 18 19 21 23 24 24 24 27 25 28 28 28 27 30 35 38 35 25 23 25 26 27 26 25 25 25 25 26 24 21
16 19 19 18 14 15 16 16 16 16 17 18 21 22 24 25 26 28 31 25 26 29 29 32 34 40 39 39 39 34 31 24 24 22 19 23 25 22 23 24 25 27 23

GFSMW_925_spd_060.txt.gz
Wind_Speed
15 16 19 20 21 26 23 24 28 26 26 25 23 22 22 19 17 16 16 19 19 19 18 18 16 13 9 6 5 7 7 4 4 1 2 3 11 6 2 12 5 8 5
7 13 19 24 26 30 28 28 31 32 31 30 29 25 24 19 18 18 18 19 19 18 18 16 14 12 8 7 7 6 6 4 5 4 2 3 4 7 8 10 5 3 7
13 10 17 27 31 33 34 34 33 33 33 33 29 22 22 18 19 20 20 20 19 18 16 15 13 12 9 9 8 5 3 4 3 3 1 1 3 4 4 10 5 5 7
11 11 17 21 29 30 31 33 33 33 35 33 32 31 32 22 22 23 23 21 21 19 18 16 14 13 10 8 7 6 2 3 1 1 4 5 7 2 3 6 9 12 9
16 16 19 25 26 31 33 32 33 34 37 37 36 33 28 24 20 24 25 23 20 19 17 16 15 12 9 6 3 1 2 4 3 2 4 7 11 12 10 3 8 10 15
13 12 18 21 22 26 30 32 35 37 36 36 36 33 25 24 20 24 27 24 20 18 16 14 12 12 10 3 2 5 4 4 4 5 8 10 8 7 10 5 10 12 14
12 11 11 18 23 29 33 34 34 31 36 37 37 33 28 26 25 26 30 27 25 21 19 18 20 16 7 5 7 5 8 7 7 8 8 7 9 10 12 14 11 7 5
12 14 15 21 25 31 32 30 30 31 34 34 36 34 31 29 24 23 28 29 26 23 22 22 16 3 4 2 4 9 11 9 8 6 6 8 11 13 15 15 8 5 6
12 15 14 22 24 27 32 33 30 31 29 36 35 34 31 28 24 25 25 27 29 31 28 21 14 8 6 7 7 10 10 9 7 8 9 11 14 14 15 15 13 7 4
6 7 8 18 22 26 29 30 31 33 33 33 35 32 29 27 26 26 26 31 31 29 22 15 9 10 9 7 11 9 9 9 9 9 10 13 13 13 11 9 9 11 9
8 7 7 15 19 21 25 28 30 30 31 30 30 30 28 28 25 25 26 31 29 24 17 13 10 7 7 10 12 9 10 13 11 10 13 14 13 12 13 12 12 13 13
7 7 8 15 20 25 27 31 29 29 29 29 29 29 29 28 27 28 31 28 23 16 14 12 9 6 13 13 12 9 13 13 12 13 14 15 13 13 13 14 15 14 13
7 7 6 11 17 18 19 22 26 27 25 25 26 25 25 28 29 30 25 22 15 13 10 7 10 12 14 14 12 12 13 13 12 14 14 15 14 15 17 18 17 16 15
7 6 5 5 8 10 14 17 18 19 21 21 20 21 22 26 22 18 17 13 10 7 6 9 16 14 13 12 13 14 14 13 14 14 15 16 17 19 19 18 17 16 16
7 7 4 6 9 14 14 14 16 18 20 23 24 23 23 18 19 15 12 12 7 9 11 11 14 13 13 13 15 15 15 16 16 15 17 19 19 19 17 17 17 17 17
5 3 2 6 8 11 14 18 19 20 22 23 23 22 16 15 15 14 15 11 9 5 9 11 15 19 15 17 16 17 18 18 18 18 18 18 18 18 18 20 19 18 17
7 7 6 7 12 13 16 19 22 23 23 21 19 18 19 21 14 12 9 2 10 16 13 17 16 17 20 18 19 20 22 22 20 20 21 19 19 18 18 18 18 18 18
7 7 8 14 16 18 20 22 23 24 25 25 25 22 21 16 8 5 9 13 10 13 14 17 17 19 20 20 21 22 24 24 23 22 22 22 20 19 19 17 18 21 21
6 11 17 20 21 23 26 28 27 27 29 27 22 16 10 7 9 12 16 9 12 14 14 15 17 19 20 20 22 24 26 26 26 24 23 23 23 21 20 20 20 23 23
13 16 21 22 25 24 28 30 26 27 23 15 12 8 7 10 12 6 8 10 12 15 17 19 20 20 23 22 24 25 28 29 28 26 24 24 26 24 21 21 22 22 23
17 21 24 24 25 26 30 26 23 18 11 7 6 5 1 2 5 8 10 13 15 17 19 22 23 24 25 28 28 28 28 31 32 30 26 27 24 24 23 23 23 24 20
18 22 24 25 25 25 26 20 17 11 10 8 6 5 5 7 9 11 14 16 19 22 25 29 33 33 31 30 29 29 30 33 35 33 27 28 23 22 22 24 26 23 20
19 23 25 26 23 20 19 19 12 7 8 8 9 8 8 10 12 14 16 19 20 23 26 25 25 30 31 31 31 30 32 34 32 33 35 31 26 22 23 25 26 24 22
19 23 24 22 21 21 20 17 14 11 10 11 11 12 13 16 17 18 20 21 22 24 22 21 22 26 29 28 29 32 34 36 32 34 34 32 29 27 26 25 26 27 25
20 23 22 21 20 19 19 16 14 12 12 12 13 15 16 18 21 22 20 20 20 19 24 24 26 27 31 33 35 36 35 32 34 34 27 23 22 23 25 26 27 27 27
19 21 20 23 18 17 17 15 14 13 14 14 16 17 19 21 21 22 22 18 17 19 20 22 25 33 33 38 41 44 41 37 33 30 19 19 21 21 21 22 24 27 27

GFSMW_925_spd_063.txt.gz
Wind_Speed
16 17 19 20 22 23 23 24 22 22 25 24 22 20 21 21 21 18 16 17 20 22 21 22 19 16 14 11 9 9 6 3 0 2 2 3 9 8 5 4 4 3 1
13 19 20 20 22 24 28 25 25 25 26 25 25 21 21 21 20 19 19 21 21 21 23 20 19 17 14 12 11 8 6 3 2 2 1 1 4 10 12 9 8 4 3
16 16 21 24 23 25 30 30 26 28 27 24 23 20 21 18 19 20 21 22 22 22 21 20 18 17 14 12 10 9 7 5 4 2 3 2 1 6 5 6 7 7 6
15 15 22 25 26 26 23 26 25 26 27 28 24 27 21 18 17 22 25 24 22 22 21 20 19 17 15 13 12 10 7 3 3 3 6 5 3 3 5 4 7 8 11
18 19 22 25 25 24 27 28 26 26 27 29 28 27 20 19 20 22 24 24 24 22 21 21 20 20 18 17 14 9 4 3 5 4 3 5 5 7 8 8 9 9 13
19 19 21 21 22 23 23 27 24 24 25 28 28 28 25 23 19 18 23 23 24 24 23 24 23 22 21 19 14 8 7 5 6 7 5 6 6 7 8 9 13 14 16
17 17 17 21 22 24 27 25 24 24 28 30 29 31 30 28 25 22 27 26 24 27 29 29 27 26 24 18 10 8 8 8 8 8 7 7 7 8 10 12 16 14 14
15 17 19 24 25 27 25 27 26 26 27 33 33 35 35 31 27 29 28 29 32 32 30 28 27 25 19 10 8 8 9 7 8 9 8 6 7 8 11 13 14 10 14
12 16 15 21 24 25 28 36 26 26 24 29 32 30 32 32 33 31 25 27 31 30 28 27 26 19 14 9 8 9 8 9 9 8 9 9 8 10 11 12 13 13 9
7 9 12 18 21 22 23 23 25 27 25 24 25 29 29 33 35 31 29 29 31 29 29 29 24 20 14 9 8 10 10 10 10 10 10 10 10 12 12 13 13 13 15
7 8 10 15 17 17 20 21 23 23 23 23 24 27 25 30 30 29 27 27 29 33 34 29 22 14 10 8 8 11 11 11 12 12 11 12 13 13 13 13 14 15 15
5 5 8 12 14 17 18 21 19 20 20 19 20 22 22 22 22 21 22 25 27 31 26 19 13 9 8 8 13 14 14 13 12 13 12 14 13 13 14 15 16 17 17
4 4 5 9 11 13 14 13 13 14 15 17 16 15 14 14 15 16 18 19 21 17 14 10 4 3 9 11 13 16 16 15 15 14 13 14 13 15 15 16 18 18 17
5 5 4 3 4 6 9 11 10 11 10 10 11 12 13 15 16 19 23 19 19 12 10 9 9 10 11 15 15 17 19 18 17 16 16 14 14 17 18 19 19 19 18
3 2 4 5 8 8 7 7 8 8 11 15 15 15 16 20 26 21 20 15 15 11 6 8 12 12 14 15 18 19 19 18 17 18 18 17 18 20 21 19 19 18 18
7 7 6 7 8 8 10 13 13 13 13 15 16 20 24 20 17 18 17 13 7 4 7 11 14 16 18 22 20 20 18 19 18 19 18 18 20 21 23 23 24 23 21
7 9 9 10 10 11 12 14 16 17 17 18 19 20 20 21 21 15 13 11 5 8 14 13 13 17 18 18 20 21 23 20 21 22 21 21 19 22 20 21 24 25 25
7 9 11 15 15 16 18 20 19 20 22 23 25 25 26 24 17 10 5 4 12 12 10 12 13 15 17 17 19 20 22 21 23 25 25 25 23 20 21 20 21 21 21
8 11 14 16 18 19 21 23 23 26 28 26 27 22 16 11 6 3 8 8 7 9 9 11 14 16 19 19 19 20 23 22 26 27 27 26 25 24 26 22 22 22 22
12 14 17 19 21 20 23 26 26 27 23 23 18 11 6 4 2 1 1 4 6 9 11 14 15 17 21 21 22 23 24 25 28 28 28 30 31 30 29 27 26 22 22
15 16 18 21 21 22 26 26 23 19 15 12 10 9 9 7 5 3 4 6 8 12 15 18 20 21 22 24 24 25 26 23 27 28 28 28 33 34 31 29 28 29 22
18 19 23 22 20 21 24 22 20 14 16 14 13 11 8 7 6 6 7 8 10 12 14 18 18 16 17 20 23 26 26 28 27 29 30 31 33 37 31 27 30 30 28
22 22 25 24 20 18 18 19 12 13 14 13 12 10 8 8 8 8 9 10 11 12 14 16 19 20 20 22 24 26 27 29 29 29 32 35 36 37 36 29 26 27 25
22 23 24 23 20 18 19 17 15 13 12 11 10 8 8 8 9 8 8 9 11 12 14 16 19 22 24 24 26 31 33 32 28 27 31 32 31 33 32 26 24 26 25
21 21 22 21 19 17 17 15 13 10 11 9 8 8 8 9 8 8 9 9 8 11 13 15 18 22 24 27 32 35 39 38 33 32 30 28 24 22 23 22 22 19 22
22 21 20 21 17 16 15 13 12 10 9 8 7 8 7 8 8 9 9 8 8 10 10 14 15 18 21 30 33 35 39 37 28 25 24 24 21 20 17 16 15 16 18

GFSMW_925_spd_069.txt.gz
Wind_Speed
13 23 24 24 27 27 26 24 22 19 17 16 17 17 18 19 19 16 15 16 15 15 16 15 15 16 15 14 13 11 10 8 6 6 8 9 8 8 9 9 9 8 9
20 20 22 29 30 30 26 23 21 20 19 18 17 17 18 19 19 15 14 15 15 15 17 17 17 17 15 15 15 14 12 9 7 6 5 4 2 9 12 11 12 9 10
18 20 25 28 31 29 27 24 21 20 19 18 17 16 16 16 18 17 15 16 17 18 20 19 18 18 17 17 17 15 14 11 8 5 3 2 4 9 10 11 10 10 10
19 18 22 27 29 28 26 26 24 23 21 19 18 20 19 20 19 17 15 16 18 19 20 19 19 20 19 18 18 17 15 13 12 8 5 6 6 4 5 6 10 13 12
20 21 23 29 30 29 28 27 27 24 23 23 22 21 20 19 17 18 17 21 16 18 19 18 19 21 22 21 19 17 15 12 9 8 5 7 10 13 10 8 13 14 14
19 20 27 30 30 27 27 28 28 28 25 24 25 24 22 22 21 16 17 17 17 18 25 22 23 21 22 19 18 16 14 11 6 6 8 9 11 11 13 10 15 17 17
19 20 20 23 28 31 30 29 28 29 29 27 27 27 26 23 21 18 20 19 20 22 25 26 24 23 22 19 17 16 15 13 6 6 8 10 13 12 13 15 15 15 17
17 21 21 25 28 30 31 30 29 30 30 29 29 27 26 24 21 22 21 22 22 22 20 28 26 22 20 18 16 15 12 7 8 7 9 14 14 12 13 15 15 10 17
12 19 21 26 28 29 30 31 31 29 29 29 26 25 24 24 20 20 18 18 19 21 24 26 27 23 20 19 20 20 15 13 10 8 9 16 15 13 14 14 15 16 10
4 10 14 22 24 26 27 27 28 28 27 26 24 24 23 21 19 16 18 17 17 18 21 22 21 19 22 20 20 16 12 8 9 11 14 16 16 15 15 16 17 19 20
6 5 8 14 21 21 23 25 26 26 25 25 24 21 20 19 17 17 16 16 17 19 16 14 17 23 22 20 13 9 8 8 12 15 19 17 17 17 17 17 19 20 20
2 6 6 8 11 16 18 19 20 22 22 21 20 20 17 15 16 15 16 15 18 18 21 19 14 12 16 15 13 9 10 14 14 20 19 18 18 19 18 19 21 21 22
6 6 7 9 11 13 15 17 16 17 17 17 13 16 15 16 14 14 13 13 17 18 18 19 22 20 16 13 9 10 12 13 18 17 17 19 19 21 21 21 22 23 25
9 8 8 8 11 12 13 13 10 11 13 15 15 15 13 13 13 12 13 17 18 18 18 18 19 17 11 8 8 10 15 17 15 18 19 20 22 23 24 24 25 25 25
8 8 7 9 10 12 13 15 13 12 13 15 15 16 16 15 17 17 20 19 18 17 19 19 13 9 8 8 8 10 12 14 17 19 21 24 25 26 27 26 27 27 26
3 4 6 8 10 10 16 16 14 14 15 20 19 19 19 18 20 20 19 22 22 19 16 11 5 5 7 9 11 9 12 15 18 22 24 26 28 29 32 36 37 36 30
3 4 7 9 10 12 16 18 18 18 17 18 18 18 19 19 20 20 22 20 19 15 10 5 5 6 8 7 7 11 12 16 20 23 26 27 29 29 29 30 32 31 33
7 7 8 12 13 15 17 19 20 20 20 20 21 19 20 20 18 17 18 15 10 8 5 6 5 3 5 7 9 12 13 17 20 23 25 28 29 30 31 31 31 32 32
10 12 15 16 17 18 20 21 20 20 21 20 20 19 19 18 16 15 11 9 8 6 4 2 2 4 4 5 11 12 13 16 20 22 25 27 30 32 33 32 30 33 36
16 17 18 19 18 18 19 20 20 19 19 19 20 18 16 14 9 9 8 6 5 3 2 1 2 4 6 8 11 13 13 16 19 21 23 26 29 32 34 33 29 31 32
18 18 18 17 18 18 19 20 20 19 20 19 17 14 11 10 9 8 6 5 3 2 1 2 3 5 4 6 12 14 11 15 19 24 26 27 30 34 36 34 29 29 32
18 18 18 18 18 19 19 20 19 19 18 17 14 13 11 9 8 7 5 3 2 2 2 2 4 4 4 6 8 9 14 19 20 24 27 31 35 43 44 41 38 35 35
18 19 19 20 19 18 18 19 18 18 17 15 14 12 10 8 6 5 3 2 1 1 1 3 4 5 5 6 8 15 18 19 21 25 29 36 42 42 39 32 30 29 27
20 20 21 20 19 17 17 18 17 16 15 14 12 10 8 6 4 3 2 0 1 1 2 4 5 6 7 8 10 15 18 19 21 25 30 34 33 31 31 32 29 26 24
21 22 21 20 18 18 16 15 15 15 15 13 11 9 7 4 4 3 2 1 3 1 1 2 4 5 6 8 13 16 18 21 24 28 27 23 25 26 26 27 28 23 20
22 21 21 20 18 17 15 14 13 13 13 12 9 7 6 4 2 1 3 3 3 5 4 5 2 4 6 10 15 17 18 21 20 21 20 20 21 23 25 25 27 30 21

GFSMW_925_spd_072.txt.gz
Wind_Speed
20 26 28 34 31 31 32 34 29 34 31 28 26 23 22 24 21 20 19 22 22 22 22 17 18 21 18 18 17 14 13 11 8 6 8 14 16 13 12 10 12 10 10
15 18 28 31 31 33 33 34 33 28 27 26 25 25 25 27 26 26 25 22 22 20 20 19 21 20 19 19 20 17 14 13 12 6 4 1 7 14 15 15 15 15 14
17 18 24 32 36 35 34 32 35 33 31 30 28 24 24 23 25 24 24 23 21 21 21 21 19 20 22 23 20 21 18 18 13 11 3 0 3 3 10 23 19 15 12
20 17 23 27 33 37 35 35 31 33 32 30 26 27 21 19 21 23 23 22 23 22 21 22 23 22 24 19 26 24 23 19 16 13 10 4 0 1 3 2 12 17 17
15 23 22 31 35 34 35 30 26 26 28 29 22 27 22 23 23 24 25 23 22 23 22 23 24 24 24 24 24 24 24 19 12 15 11 6 6 10 10 4 10 14 12
21 18 29 33 33 36 33 33 31 27 27 33 30 22 27 23 22 23 22 24 26 27 23 21 27 28 24 24 21 22 22 19 15 14 13 10 5 6 8 3 6 8 15
21 21 22 23 30 33 34 31 32 31 30 32 32 33 25 30 22 22 28 26 26 28 28 31 32 29 28 26 21 22 18 20 18 13 9 8 10 12 12 12 12 9 17
15 18 18 28 32 34 35 33 32 32 31 31 31 32 34 25 29 26 25 26 25 26 26 25 29 25 25 23 23 19 24 20 18 15 12 9 11 13 11 13 13 5 10
7 13 18 24 31 34 36 36 34 33 32 33 32 30 30 30 27 26 23 21 22 22 22 21 24 23 20 17 17 23 21 17 15 11 8 9 12 13 17 14 13 11 2
4 7 11 21 28 32 37 38 37 31 31 29 32 31 30 28 27 23 26 22 19 16 21 23 22 23 21 20 21 19 17 14 11 9 10 12 13 17 16 15 15 18 20
5 3 3 6 25 28 29 37 35 31 26 30 31 30 26 24 22 21 15 16 17 18 18 19 22 22 22 21 20 13 14 13 11 14 13 15 15 17 17 16 17 17 18
5 6 3 2 5 12 18 26 27 24 24 25 30 30 27 22 21 19 19 21 20 21 20 21 22 22 20 21 21 18 14 14 16 17 16 17 18 20 20 21 23 22 23
6 7 6 5 5 3 3 11 21 21 21 20 18 23 22 27 24 19 20 18 21 19 21 20 21 24 23 17 13 12 13 15 16 14 16 19 18 18 19 19 20 22 22
7 6 10 9 9 9 8 7 12 12 15 18 22 24 20 20 18 17 17 18 20 24 22 20 18 16 14 14 14 13 13 13 14 18 19 18 19 19 20 23 24 24 25
6 5 4 10 12 15 21 19 18 17 17 19 20 19 19 19 18 16 18 19 19 19 17 17 15 17 16 13 10 8 11 11 13 16 17 19 21 22 23 25 27 29 30
8 6 2 12 12 22 19 15 15 13 14 21 22 20 20 19 19 20 20 21 19 17 17 19 18 13 10 8 9 10 7 9 12 14 16 19 21 23 26 29 30 36 36
4 2 2 11 18 21 21 18 20 18 20 22 22 22 22 23 22 23 22 21 22 21 18 13 9 7 7 9 10 10 8 10 12 15 18 21 20 23 26 26 24 25 26
6 5 6 12 22 24 22 23 21 19 20 20 21 21 22 22 22 23 23 23 21 16 9 9 8 7 11 9 7 4 5 7 10 14 16 19 21 21 25 31 34 33 29
7 6 10 14 24 24 24 23 21 20 20 20 21 20 21 21 21 21 21 17 13 10 10 8 7 4 8 3 3 5 6 8 12 14 14 17 22 23 26 30 33 34 33
11 12 14 16 18 23 26 25 24 22 21 20 21 21 21 20 20 17 13 12 11 10 8 9 5 4 2 1 6 9 10 10 12 16 21 21 21 24 27 32 31 33 35
15 17 18 17 18 20 21 21 21 19 20 22 21 20 19 17 15 15 14 11 10 10 7 4 3 1 1 2 8 10 9 11 17 18 20 22 24 28 33 35 35 35 39
17 19 17 17 19 20 20 21 20 22 23 22 20 17 16 15 13 13 11 9 9 7 6 3 2 1 0 2 2 5 9 13 15 17 21 25 29 32 31 32 32 36 34
16 18 17 19 19 20 20 20 22 22 21 19 18 17 15 13 12 12 9 8 7 6 6 4 2 1 4 2 3 8 14 14 16 18 20 26 27 27 29 27 29 29 28
14 17 19 16 17 18 18 21 21 20 18 18 17 16 15 13 11 10 7 8 6 6 4 2 1 1 2 6 9 13 16 15 17 21 26 24 25 20 26 27 28 27 27
16 18 16 16 15 17 19 18 17 17 17 16 14 12 12 11 9 10 11 5 6 4 4 4 2 1 1 4 9 13 15 17 19 22 22 23 19 22 23 25 26 28 28
16 16 17 18 18 17 15 14 13 15 16 15 14 12 10 7 7 9 7 4 1 1 2 3 4 3 5 8 11 14 15 16 17 17 19 18 19 20 21 23 26 26 28

GFSMW_925_spd_075.txt.gz
Wind_Speed
19 25 24 22 25 30 25 27 29 35 33 34 33 31 26 30 34 33 32 29 26 28 26 25 24 24 26 23 22 20 19 13 17 11 12 15 15 15 15 15 13 12 14
17 23 25 27 25 25 28 30 31 35 34 33 32 25 31 32 33 28 30 32 31 28 26 27 25 25 28 25 25 24 20 20 16 11 4 1 7 17 18 19 18 19 16
21 19 25 30 28 27 30 31 34 36 37 35 30 26 24 27 30 27 28 31 30 30 30 27 26 27 31 28 28 29 27 23 19 19 7 1 4 4 13 22 23 19 18
19 21 23 28 31 33 35 37 35 35 38 37 32 29 25 24 28 36 34 33 33 31 29 26 27 27 32 31 29 31 30 24 22 20 19 8 4 3 1 2 11 20 19
22 23 24 33 37 37 37 37 38 37 35 37 35 33 31 33 31 34 36 39 36 32 31 28 25 29 31 30 26 30 28 28 22 27 21 16 10 8 3 3 5 8 12
22 22 32 34 38 38 37 35 36 36 39 41 42 37 37 36 33 31 37 39 36 36 34 30 29 30 29 30 30 31 34 30 27 24 20 14 7 8 7 3 9 7 11
22 21 23 28 35 39 38 36 37 36 43 43 39 40 45 39 39 37 35 35 36 38 37 34 32 31 31 28 26 27 26 27 19 22 18 10 6 6 7 8 7 8 11
20 22 25 33 37 41 41 39 38 35 36 38 43 42 43 46 39 39 37 40 40 39 37 36 32 29 27 28 23 23 21 19 19 19 18 14 11 12 13 7 8 3 4
19 21 21 34 38 39 44 44 39 39 36 35 39 47 44 41 43 40 31 36 36 32 32 33 26 24 25 24 24 22 15 20 20 19 16 15 15 15 17 19 14 12 3
12 16 17 29 36 41 43 43 43 41 44 41 35 41 45 44 37 37 37 32 35 32 27 27 23 21 22 21 21 19 22 22 21 17 13 13 15 17 17 18 20 17 16
6 4 8 27 38 39 39 39 38 36 32 36 38 36 40 43 42 35 29 24 27 28 26 24 22 23 23 24 24 22 21 21 18 15 15 15 16 19 18 19 16 16 17
9 7 2 8 24 27 29 33 32 34 35 32 34 39 40 37 30 18 22 23 26 22 18 17 21 22 23 23 22 22 21 18 16 14 13 15 17 17 18 20 22 24 24
8 7 7 3 13 19 25 27 32 37 33 26 35 32 31 26 28 30 26 26 22 19 17 17 19 21 22 22 21 19 15 13 12 10 12 12 13 17 20 20 19 20 21
6 8 7 7 9 22 22 21 20 25 25 24 25 23 22 25 23 23 23 20 19 19 21 21 22 22 20 19 16 14 12 10 8 8 10 15 19 20 21 23 25 27 29
6 4 8 7 11 18 25 23 21 20 19 20 21 21 23 24 23 20 19 18 19 20 21 21 19 19 19 18 17 11 7 4 6 9 11 9 9 11 14 17 18 20 26
6 2 5 13 10 17 20 25 23 19 20 22 22 22 22 21 20 18 18 19 20 19 19 20 20 20 18 14 10 8 7 6 5 7 10 12 15 14 13 13 14 14 17
7 8 13 9 12 16 21 20 23 21 21 23 22 21 21 21 21 21 22 22 22 22 21 20 18 14 11 9 9 9 7 5 4 5 6 7 9 14 18 21 25 27 29
7 10 10 13 17 21 23 24 23 23 24 23 23 23 24 25 25 25 26 25 25 24 22 17 13 11 10 10 14 10 7 4 3 5 8 11 14 17 21 25 27 29 31
7 9 18 21 22 23 23 23 22 23 21 21 22 25 26 27 27 27 27 26 25 19 14 13 14 17 16 11 10 7 5 4 6 8 9 12 13 14 18 24 28 30 32
15 18 23 24 25 23 23 22 21 20 20 21 22 23 25 27 26 27 26 23 18 14 13 19 19 17 16 8 4 2 1 3 6 8 10 10 11 15 19 21 25 28 31
16 22 23 20 22 26 25 21 21 18 20 21 22 23 25 25 25 24 21 19 15 23 21 20 15 12 9 7 3 2 3 5 9 10 13 15 16 18 18 17 21 25 31
15 22 20 20 24 24 22 19 19 21 21 23 22 21 23 19 20 18 18 23 21 18 15 13 15 13 11 6 4 2 4 6 8 11 13 17 19 17 16 17 19 22 26
14 21 21 22 21 22 26 20 21 24 21 19 19 15 20 22 21 20 17 17 16 14 14 14 14 16 14 10 4 2 6 9 10 11 14 17 15 14 14 20 20 21 22
10 18 20 17 18 20 22 26 26 24 22 21 20 20 21 19 17 15 14 16 15 14 12 12 14 15 13 4 2 7 10 12 14 15 16 15 14 12 19 20 20 18 20
19 23 20 19 20 26 25 25 25 25 26 23 21 19 18 17 18 16 12 10 9 5 8 7 7 6 4 3 6 9 12 13 13 15 15 16 15 18 19 18 17 19 21
21 23 27 28 24 29 26 22 23 28 28 26 22 19 18 12 12 11 10 8 5 3 2 1 4 4 5 6 9 11 12 11 12 14 17 17 14 16 18 18 17 19 21

GFSMW_925_spd_081.txt.gz
Wind_Speed
6 9 11 12 14 16 19 22 23 26 25 29 24 27 33 30 28 28 27 26 25 21 18 22 23 22 20 22 21 20 20 18 17 15 13 15 18 18 17 16 17 18 18
4 8 11 15 15 16 20 21 24 29 34 35 24 21 26 32 28 25 23 20 17 15 23 23 24 21 21 23 24 25 24 20 19 10 3 1 8 22 23 23 22 23 21
13 14 16 17 18 18 22 22 23 29 30 30 23 25 24 26 26 24 24 20 20 25 23 22 22 22 22 26 27 29 28 24 23 24 9 1 4 0 11 26 25 24 24
10 11 18 20 22 22 23 27 27 29 28 32 30 32 29 26 27 30 30 25 23 24 21 23 25 26 28 27 30 31 32 28 25 22 21 9 2 3 1 3 13 20 20
14 14 14 20 21 21 22 29 30 31 32 35 35 34 29 28 26 29 32 35 32 30 27 28 29 31 30 31 33 34 34 31 28 26 15 16 8 6 3 1 2 4 5
15 12 15 16 19 23 24 26 29 32 35 37 37 37 34 31 30 31 34 37 35 35 35 34 35 37 35 37 37 36 34 35 33 31 29 22 10 9 5 3 7 7 12
13 13 13 15 20 25 28 30 32 32 36 39 38 38 38 36 33 34 36 36 38 40 40 36 37 38 42 41 39 37 34 33 34 35 33 28 25 19 22 16 7 7 9
13 15 16 20 23 26 29 32 32 33 35 38 38 40 36 34 36 33 35 37 35 39 41 42 43 44 44 41 39 36 29 30 34 34 30 25 24 25 25 21 12 2 7
15 18 16 23 24 27 33 35 33 34 33 34 35 36 39 36 33 34 34 39 39 39 39 39 40 41 41 39 36 33 30 29 31 31 30 27 26 25 26 21 17 10 3
14 13 13 22 27 30 31 33 34 34 33 30 33 34 36 39 39 36 38 41 35 32 31 32 35 36 35 29 28 29 27 27 28 28 24 27 25 25 21 19 17 17 13
16 16 15 24 28 26 28 31 34 34 30 31 33 34 37 38 39 39 37 40 37 35 31 31 31 30 26 31 31 33 29 26 26 25 25 24 22 21 19 16 16 17 17
17 17 16 22 24 30 29 35 36 36 35 36 46 40 34 34 35 38 41 40 36 31 30 27 24 25 30 32 34 29 26 26 26 23 21 21 19 18 15 14 16 17 17
10 12 11 13 21 27 30 34 34 38 40 38 36 33 37 37 41 43 42 39 37 40 36 36 38 32 33 31 32 24 24 26 24 21 20 19 16 14 13 14 13 15 16
11 12 11 13 19 26 28 31 34 39 40 38 35 36 39 42 40 42 41 38 37 37 35 36 34 33 34 31 26 24 24 22 19 17 16 13 12 11 11 10 11 11 12
9 10 11 11 10 17 25 29 33 33 35 32 33 33 34 35 34 31 32 32 33 32 30 27 28 30 28 25 24 24 22 20 17 13 11 10 11 10 9 9 7 6 7
10 13 11 9 8 16 21 23 23 21 23 26 25 25 23 21 19 19 21 23 23 22 23 26 26 23 21 22 22 20 21 20 17 15 14 12 10 8 8 8 9 9 9
10 10 14 13 9 12 14 12 13 16 16 18 19 18 17 17 17 17 19 20 19 19 20 20 19 19 18 17 19 19 19 17 17 16 15 10 6 6 6 8 10 11 10
10 7 7 7 13 14 13 13 11 11 13 14 14 13 15 17 19 20 20 20 21 21 20 19 18 18 19 19 19 18 17 16 14 11 9 6 4 4 6 8 9 9 9
10 6 13 14 16 17 19 18 16 14 13 11 12 13 15 18 19 19 19 19 19 19 19 19 20 21 20 17 17 17 16 14 10 6 4 3 4 5 6 8 8 9 9
7 13 19 20 19 18 21 19 17 16 13 12 11 11 12 14 15 15 16 17 18 20 21 21 17 16 18 16 15 12 12 11 7 4 2 2 3 3 5 6 7 8 12
13 19 17 16 17 21 21 18 16 13 11 10 10 10 10 11 13 15 16 19 21 22 20 20 18 16 16 15 11 9 7 5 4 3 2 2 4 7 6 4 4 7 11
13 16 17 16 18 21 22 18 16 16 14 13 12 11 10 12 15 18 18 18 19 19 19 20 18 15 13 11 9 6 3 2 1 1 4 5 7 6 4 3 6 7 11
14 15 19 19 18 17 20 21 19 19 18 18 17 16 15 16 16 17 16 15 15 18 18 17 17 14 10 7 6 3 1 1 3 5 6 7 6 5 3 4 6 9 13
11 18 20 18 16 17 17 24 24 23 23 22 20 19 21 20 17 16 16 17 14 15 15 13 11 10 8 5 2 2 4 6 7 6 8 6 5 3 4 6 7 10 13
17 19 21 22 20 22 23 22 24 25 27 26 24 23 23 25 26 25 22 21 16 10 9 7 7 9 6 4 1 2 5 7 7 8 7 6 3 3 5 6 7 10 10
19 21 24 26 23 28 26 23 21 26 29 25 21 21 23 22 22 23 21 18 14 13 11 9 4 3 3 4 1 2 4 5 5 5 2 3 3 3 4 6 7 9 11